Weather Roundup
Issued by NWS Springfield, MO

Home | Current Version | Previous Version | Text Only | Print | Product List | Glossary On
Versions: 1 2 3 4 5 6 7 8 9 10 11 12 13 14 15 16 17 18 19 20 21 22 23 24 25 26 27 28 29 30 31 32 33 34 35 36 37 38 39 40 41 42 43 44 45 46 47 48 49 50
000
NZUS99 KSGF 051210
HRRSGF

HOURLY WEATHER
NATIONAL WEATHER SERVICE SPRINGFIELD MO
700 AM CDT SAT SEP 05 2015

......SGF CWA......

CITY           SKY/WX    TMP DP  RH WIND       PRES   REMARKS
SPRINGFIELD    CLEAR     73  67  81 SE9       30.08R
6HR MIN TEMP:  73; 6HR MAX TEMP:  77;

JOPLIN         CLEAR     74  68  81 S7        30.05R
6HR MIN TEMP:  73; 6HR MAX TEMP:  78;

WEST PLAINS    CLEAR     67  64  90 CALM      30.12R
6HR MIN TEMP:  66; 6HR MAX TEMP:  71;

ROLLA          CLEAR     69  67  93 SE7       30.08R
6HR MIN TEMP:  69; 6HR MAX TEMP:  74;

OSAGE BEACH    CLEAR     70  66  88 SE3       30.07R
BRANSON        CLEAR     68  66  94 CALM      30.10R

......SURROUNDING SGF CWA......

CITY           SKY/WX    TMP DP  RH WIND       PRES   REMARKS
CHANUTE        CLEAR     71  69  93 SE7       30.02R
PARSONS        CLEAR     72  70  93 CALM      30.03R
COFFEYVILLE    CLEAR     72  69  90 SE6       30.02R
EMPORIA        CLEAR     72  68  87 S13       30.00R
GROVE OK       CLEAR     72  72 100 CALM      30.05R
ROGERS AR      CLEAR     73  68  84 SE9       30.09R
SILOAM SPRINGS CLEAR     70  63  78 E5        30.06R
HARRISON AR    CLEAR     69  67  93 CALM      30.10R
NEAR YELLVILLE CLEAR     70  63  78 CALM      30.06S

......KANSAS AND MISSOURI......

CITY           SKY/WX    TMP DP  RH WIND       PRES   REMARKS
KANSAS CTY INT PTCLDY    73  68  84 S10       30.01S
DOWNTOWN KC    CLEAR     77  68  73 SW3       30.00S
COLUMBIA       CLEAR     71  68  90 SE7       30.07R
SEDALIA        CLEAR     71  67  87 S7        30.06R
ST JOSEPH      CLEAR     72  68  87 S5        30.00R
ST LOUIS       PTCLDY    74  67  78 E5        30.09R
SPIRIT OF STL  CLEAR     68  68 100 CALM      30.07R FOG
KIRKSVILLE     CLEAR     71  67  87 S5        30.07R
WICHITA        PTCLDY    72  68  87 S8        29.98S
TOPEKA         CLEAR     74  68  81 S7        29.99S
OLATHE         CLEAR     70  68  93 S5        30.02S

......TENNESSEE......

CITY           SKY/WX    TMP DP  RH WIND       PRES   REMARKS
MEMPHIS        PTCLDY    77  71  82 CALM      30.05R
NASHVILLE      PTCLDY    73  67  81 CALM      30.10R HAZE

......ARKANSAS.......

CITY           SKY/WX    TMP DP  RH WIND       PRES   REMARKS
FAYETTEVILLE   CLEAR     66  66 100 CALM      30.08R FOG
FT SMITH       PTCLDY    76  69  79 E5        30.03R
LITTLE ROCK    CLEAR     74  70  87 CALM      30.04R

......OKLAHOMA.......

CITY           SKY/WX    TMP DP  RH WIND       PRES   REMARKS
TULSA          CLEAR     73  71  93 SE6       30.00R
PONCA CITY     CLEAR     75  68  78 SE10      29.99R
MCALESTER      CLEAR     76  69  79 SE3       30.03R
OKLAHOMA CITY  PTCLDY    72  69  90 S7        30.00R

......IOWA............

CITY           SKY/WX    TMP DP  RH WIND       PRES   REMARKS
DES MOINES     MOCLDY    74  68  81 SE7       30.00R
QUAD CITIES    MOCLDY    73  68  84 CALM      30.05S

......ILLINOIS........

CITY           SKY/WX    TMP DP  RH WIND       PRES   REMARKS
QUINCY         CLEAR     72  69  90 S5        30.07R
CHICAGO        MOCLDY    71  67  87 S5        30.07S




USA.gov is the U.S. government's official web portal to all federal, state and local government web resources and services.